Year,Month,Day,Hour,Minute,Value (Times are PST for temperature in C)
2015,05,02,00,00,9.90
2015,05,02,00,01,9.90
2015,05,02,00,02,9.80
2015,05,02,00,03,9.80
2015,05,02,00,04,9.80
2015,05,02,00,05,9.80
2015,05,02,00,06,9.80
2015,05,02,00,07,9.80
2015,05,02,00,08,9.70
2015,05,02,00,09,9.70
2015,05,02,00,10,9.70
2015,05,02,00,11,9.70
2015,05,02,00,12,9.70
2015,05,02,00,13,9.70
2015,05,02,00,14,9.70
2015,05,02,00,15,9.60
2015,05,02,00,16,9.60
2015,05,02,00,17,9.60
2015,05,02,00,18,9.60
2015,05,02,00,19,9.60
2015,05,02,00,20,9.60
2015,05,02,00,21,9.60
2015,05,02,00,22,9.50
2015,05,02,00,23,9.40
2015,05,02,00,24,9.40
2015,05,02,00,25,9.40
2015,05,02,00,26,9.30
2015,05,02,00,27,9.30
2015,05,02,00,28,9.30
2015,05,02,00,29,9.30
2015,05,02,00,30,9.30
2015,05,02,00,31,9.30
2015,05,02,00,32,9.30
2015,05,02,00,33,9.20
2015,05,02,00,34,9.20
2015,05,02,00,35,9.20
2015,05,02,00,36,9.20
2015,05,02,00,37,9.20
2015,05,02,00,38,9.10
2015,05,02,00,39,9.10
2015,05,02,00,40,9.00
2015,05,02,00,41,8.90
2015,05,02,00,42,8.90
2015,05,02,00,43,8.80
2015,05,02,00,44,8.80
2015,05,02,00,45,8.80
2015,05,02,00,46,8.80
2015,05,02,00,47,8.70
2015,05,02,00,48,8.70
2015,05,02,00,49,8.70
2015,05,02,00,50,8.70
2015,05,02,00,51,8.60
2015,05,02,00,52,8.60
2015,05,02,00,53,8.60
2015,05,02,00,54,8.60
2015,05,02,00,55,8.50
2015,05,02,00,56,8.50
2015,05,02,00,57,8.40
2015,05,02,00,58,8.40
2015,05,02,00,59,8.40
2015,05,02,01,00,8.40
2015,05,02,01,01,8.30
2015,05,02,01,02,8.30
2015,05,02,01,03,8.30
2015,05,02,01,04,8.30
2015,05,02,01,05,8.30
2015,05,02,01,06,8.30
2015,05,02,01,07,8.30
2015,05,02,01,08,8.20
2015,05,02,01,09,8.20
2015,05,02,01,10,8.20
2015,05,02,01,11,8.20
2015,05,02,01,12,8.20
2015,05,02,01,13,8.10
2015,05,02,01,14,8.10
2015,05,02,01,15,8.10
2015,05,02,01,16,8.10
2015,05,02,01,17,8.00
2015,05,02,01,18,7.90
2015,05,02,01,19,7.90
2015,05,02,01,20,7.90
2015,05,02,01,21,7.80
2015,05,02,01,22,7.80
2015,05,02,01,23,7.80
2015,05,02,01,24,7.70
2015,05,02,01,25,7.70
2015,05,02,01,26,7.70
2015,05,02,01,27,7.70
2015,05,02,01,28,7.70
2015,05,02,01,29,7.70
2015,05,02,01,30,7.60
2015,05,02,01,31,7.60
2015,05,02,01,32,7.60
2015,05,02,01,33,7.60
2015,05,02,01,34,7.50
2015,05,02,01,35,7.50
2015,05,02,01,36,7.50
2015,05,02,01,37,7.40
2015,05,02,01,38,7.40
2015,05,02,01,39,7.40
2015,05,02,01,40,7.40
2015,05,02,01,41,7.40
2015,05,02,01,42,7.30
2015,05,02,01,43,7.30
2015,05,02,01,44,7.30
2015,05,02,01,45,7.30
2015,05,02,01,46,7.30
2015,05,02,01,47,7.30
2015,05,02,01,48,7.30
2015,05,02,01,49,7.30
2015,05,02,01,50,7.20
2015,05,02,01,51,7.20
2015,05,02,01,52,7.20
2015,05,02,01,53,7.20
2015,05,02,01,54,7.20
2015,05,02,01,55,7.20
2015,05,02,01,56,7.20
2015,05,02,01,57,7.20
2015,05,02,01,58,7.20
2015,05,02,01,59,7.20
2015,05,02,02,00,7.20
2015,05,02,02,01,7.10
2015,05,02,02,02,7.10
2015,05,02,02,03,7.10
2015,05,02,02,04,7.10
2015,05,02,02,05,7.10
2015,05,02,02,06,7.10
2015,05,02,02,07,7.00
2015,05,02,02,08,7.00
2015,05,02,02,09,6.90
2015,05,02,02,10,6.90
2015,05,02,02,11,6.90
2015,05,02,02,12,6.90
2015,05,02,02,13,6.90
2015,05,02,02,14,6.90
2015,05,02,02,15,6.90
2015,05,02,02,16,6.80
2015,05,02,02,17,6.80
2015,05,02,02,18,6.80
2015,05,02,02,19,6.80
2015,05,02,02,20,6.80
2015,05,02,02,21,6.80
2015,05,02,02,22,6.70
2015,05,02,02,23,6.70
2015,05,02,02,24,6.70
2015,05,02,02,25,6.70
2015,05,02,02,26,6.70
2015,05,02,02,27,6.60
2015,05,02,02,28,6.60
2015,05,02,02,29,6.60
2015,05,02,02,30,6.60
2015,05,02,02,31,6.50
2015,05,02,02,32,6.40
2015,05,02,02,33,6.40
2015,05,02,02,34,6.40
2015,05,02,02,35,6.40
2015,05,02,02,36,6.30
2015,05,02,02,37,6.30
2015,05,02,02,38,6.30
2015,05,02,02,39,6.30
2015,05,02,02,40,6.30
2015,05,02,02,41,6.20
2015,05,02,02,42,6.20
2015,05,02,02,43,6.20
2015,05,02,02,44,6.20
2015,05,02,02,45,6.20
2015,05,02,02,46,6.20
2015,05,02,02,47,6.10
2015,05,02,02,48,6.10
2015,05,02,02,49,6.10
2015,05,02,02,50,6.10
2015,05,02,02,51,6.10
2015,05,02,02,52,6.00
2015,05,02,02,53,6.00
2015,05,02,02,54,5.90
2015,05,02,02,55,5.90
2015,05,02,02,56,5.90
2015,05,02,02,57,5.90
2015,05,02,02,58,5.90
2015,05,02,02,59,5.90
2015,05,02,03,00,5.90
2015,05,02,03,01,5.90
2015,05,02,03,02,5.90
2015,05,02,03,03,5.80
2015,05,02,03,04,5.80
2015,05,02,03,05,5.80
2015,05,02,03,06,5.80
2015,05,02,03,07,5.80
2015,05,02,03,08,5.80
2015,05,02,03,09,5.80
2015,05,02,03,10,5.80
2015,05,02,03,11,5.80
2015,05,02,03,12,5.80
2015,05,02,03,13,5.80
2015,05,02,03,14,5.80
2015,05,02,03,15,5.70
2015,05,02,03,16,5.70
2015,05,02,03,17,5.70
2015,05,02,03,18,5.70
2015,05,02,03,19,5.70
2015,05,02,03,20,5.70
2015,05,02,03,21,5.70
2015,05,02,03,22,5.70
2015,05,02,03,23,5.70
2015,05,02,03,24,5.70
2015,05,02,03,25,5.60
2015,05,02,03,26,5.60
2015,05,02,03,27,5.60
2015,05,02,03,28,5.60
2015,05,02,03,29,5.60
2015,05,02,03,30,5.60
2015,05,02,03,31,5.50
2015,05,02,03,32,5.50
2015,05,02,03,33,5.50
2015,05,02,03,34,5.50
2015,05,02,03,35,5.40
2015,05,02,03,36,5.40
2015,05,02,03,37,5.40
2015,05,02,03,38,5.40
2015,05,02,03,39,5.40
2015,05,02,03,40,5.40
2015,05,02,03,41,5.40
2015,05,02,03,42,5.40
2015,05,02,03,43,5.40
2015,05,02,03,44,5.40
2015,05,02,03,45,5.40
2015,05,02,03,46,5.40
2015,05,02,03,47,5.40
2015,05,02,03,48,5.40
2015,05,02,03,49,5.40
2015,05,02,03,50,5.30
2015,05,02,03,51,5.30
2015,05,02,03,52,5.40
2015,05,02,03,53,5.30
2015,05,02,03,54,5.30
2015,05,02,03,55,5.30
2015,05,02,03,56,5.30
2015,05,02,03,57,5.30
2015,05,02,03,58,5.30
2015,05,02,03,59,5.30
2015,05,02,04,00,5.30
2015,05,02,04,01,5.30
2015,05,02,04,02,5.20
2015,05,02,04,03,5.20
2015,05,02,04,04,5.20
2015,05,02,04,05,5.20
2015,05,02,04,06,5.20
2015,05,02,04,07,5.20
2015,05,02,04,08,5.20
2015,05,02,04,09,5.20
2015,05,02,04,10,5.20
2015,05,02,04,11,5.20
2015,05,02,04,12,5.20
2015,05,02,04,13,5.20
2015,05,02,04,14,5.20
2015,05,02,04,15,5.20
2015,05,02,04,16,5.20
2015,05,02,04,17,5.10
2015,05,02,04,18,5.10
2015,05,02,04,19,5.10
2015,05,02,04,20,5.10
2015,05,02,04,21,5.10
2015,05,02,04,22,5.10
2015,05,02,04,23,5.10
2015,05,02,04,24,5.10
2015,05,02,04,25,5.10
2015,05,02,04,26,5.10
2015,05,02,04,27,5.10
2015,05,02,04,28,5.10
2015,05,02,04,29,5.10
2015,05,02,04,30,5.10
2015,05,02,04,31,5.00
2015,05,02,04,32,5.00
2015,05,02,04,33,5.00
2015,05,02,04,34,4.90
2015,05,02,04,35,4.90
2015,05,02,04,36,4.90
2015,05,02,04,37,4.90
2015,05,02,04,38,4.90
2015,05,02,04,39,4.80
2015,05,02,04,40,4.80
2015,05,02,04,41,4.80
2015,05,02,04,42,4.80
2015,05,02,04,43,4.80
2015,05,02,04,44,4.80
2015,05,02,04,45,4.80
2015,05,02,04,46,4.70
2015,05,02,04,47,4.70
2015,05,02,04,48,4.70
2015,05,02,04,49,4.70
2015,05,02,04,50,4.70
2015,05,02,04,51,4.70
2015,05,02,04,52,4.70
2015,05,02,04,53,4.70
2015,05,02,04,54,4.70
2015,05,02,04,55,4.70
2015,05,02,04,56,4.70
2015,05,02,04,57,4.70
2015,05,02,04,58,4.70
2015,05,02,04,59,4.70
2015,05,02,05,00,4.70
2015,05,02,05,01,4.70
2015,05,02,05,02,4.70
2015,05,02,05,03,4.70
2015,05,02,05,04,4.70
2015,05,02,05,05,4.70
2015,05,02,05,06,4.70
2015,05,02,05,07,4.70
2015,05,02,05,08,4.70
2015,05,02,05,09,4.70
2015,05,02,05,10,4.60
2015,05,02,05,11,4.60
2015,05,02,05,12,4.60
2015,05,02,05,13,4.60
2015,05,02,05,14,4.60
2015,05,02,05,15,4.60
2015,05,02,05,16,4.50
2015,05,02,05,17,4.50
2015,05,02,05,18,4.50
2015,05,02,05,19,4.50
2015,05,02,05,20,4.50
2015,05,02,05,21,4.50
2015,05,02,05,22,4.50
2015,05,02,05,23,4.40
2015,05,02,05,24,4.40
2015,05,02,05,25,4.40
2015,05,02,05,26,4.40
2015,05,02,05,27,4.40
2015,05,02,05,28,4.40
2015,05,02,05,29,4.30
2015,05,02,05,30,4.30
2015,05,02,05,31,4.30
2015,05,02,05,32,4.30
2015,05,02,05,33,4.30
2015,05,02,05,34,4.30
2015,05,02,05,35,4.30
2015,05,02,05,36,4.30
2015,05,02,05,37,4.30
2015,05,02,05,38,4.30
2015,05,02,05,39,4.20
2015,05,02,05,40,4.20
2015,05,02,05,41,4.20
2015,05,02,05,42,4.20
2015,05,02,05,43,4.20
2015,05,02,05,44,4.20
2015,05,02,05,45,4.20
2015,05,02,05,46,4.20
2015,05,02,05,47,4.20
2015,05,02,05,48,4.20
2015,05,02,05,49,4.10
2015,05,02,05,50,4.10
2015,05,02,05,51,4.10
2015,05,02,05,52,4.10
2015,05,02,05,53,4.10
2015,05,02,05,54,4.10
2015,05,02,05,55,4.10
2015,05,02,05,56,4.10
2015,05,02,05,57,4.10
2015,05,02,05,58,4.10
2015,05,02,05,59,4.00
2015,05,02,06,00,4.00
2015,05,02,06,01,4.00
2015,05,02,06,02,4.00
2015,05,02,06,03,4.00
2015,05,02,06,04,3.90
2015,05,02,06,05,4.00
2015,05,02,06,06,4.00
2015,05,02,06,07,4.00
2015,05,02,06,08,3.90
2015,05,02,06,09,3.90
2015,05,02,06,10,3.90
2015,05,02,06,11,3.90
2015,05,02,06,12,3.90
2015,05,02,06,13,3.90
2015,05,02,06,14,3.90
2015,05,02,06,15,3.90
2015,05,02,06,16,3.90
2015,05,02,06,17,3.90
2015,05,02,06,18,3.90
2015,05,02,06,19,3.90
2015,05,02,06,20,3.90
2015,05,02,06,21,3.90
2015,05,02,06,22,3.90
2015,05,02,06,23,3.90
2015,05,02,06,24,4.00
2015,05,02,06,25,4.00
2015,05,02,06,26,4.10
2015,05,02,06,27,4.10
2015,05,02,06,28,4.10
2015,05,02,06,29,4.10
2015,05,02,06,30,4.10
2015,05,02,06,31,4.10
2015,05,02,06,32,4.10
2015,05,02,06,33,4.10
2015,05,02,06,34,4.10
2015,05,02,06,35,4.10
2015,05,02,06,36,4.10
2015,05,02,06,37,4.10
2015,05,02,06,38,4.10
2015,05,02,06,39,4.00
2015,05,02,06,40,4.00
2015,05,02,06,41,4.00
2015,05,02,06,42,4.00
2015,05,02,06,43,4.00
2015,05,02,06,44,4.00
2015,05,02,06,45,4.00
2015,05,02,06,46,4.10
2015,05,02,06,47,4.10
2015,05,02,06,48,4.10
2015,05,02,06,49,4.10
2015,05,02,06,50,4.20
2015,05,02,06,51,4.20
2015,05,02,06,52,4.20
2015,05,02,06,53,4.30
2015,05,02,06,54,4.30
2015,05,02,06,55,4.30
2015,05,02,06,56,4.40
2015,05,02,06,57,4.40
2015,05,02,06,58,4.50
2015,05,02,06,59,4.60
2015,05,02,07,00,4.60
2015,05,02,07,01,4.60
2015,05,02,07,02,4.70
2015,05,02,07,03,4.70
2015,05,02,07,04,4.80
2015,05,02,07,05,4.80
2015,05,02,07,06,4.80
2015,05,02,07,07,4.90
2015,05,02,07,08,5.00
2015,05,02,07,09,5.10
2015,05,02,07,10,5.10
2015,05,02,07,11,5.20
2015,05,02,07,12,5.20
2015,05,02,07,13,5.30
2015,05,02,07,14,5.30
2015,05,02,07,15,5.40
2015,05,02,07,16,5.50
2015,05,02,07,17,5.60
2015,05,02,07,18,5.60
2015,05,02,07,19,5.70
2015,05,02,07,20,5.70
2015,05,02,07,21,5.70
2015,05,02,07,22,5.80
2015,05,02,07,23,5.80
2015,05,02,07,24,5.90
2015,05,02,07,25,5.90
2015,05,02,07,26,6.00
2015,05,02,07,27,6.10
2015,05,02,07,28,6.20
2015,05,02,07,29,6.20
2015,05,02,07,30,6.30
2015,05,02,07,31,6.30
2015,05,02,07,32,6.40
2015,05,02,07,33,6.40
2015,05,02,07,34,6.60
2015,05,02,07,35,6.60
2015,05,02,07,36,6.60
2015,05,02,07,37,6.70
2015,05,02,07,38,6.70
2015,05,02,07,39,6.70
2015,05,02,07,40,6.70
2015,05,02,07,41,6.70
2015,05,02,07,42,6.80
2015,05,02,07,43,6.80
2015,05,02,07,44,6.80
2015,05,02,07,45,6.80
2015,05,02,07,46,6.80
2015,05,02,07,47,6.90
2015,05,02,07,48,6.90
2015,05,02,07,49,6.90
2015,05,02,07,50,6.90
2015,05,02,07,51,7.00
2015,05,02,07,52,7.10
2015,05,02,07,53,7.10
2015,05,02,07,54,7.10
2015,05,02,07,55,7.20
2015,05,02,07,56,7.20
2015,05,02,07,57,7.20
2015,05,02,07,58,7.20
2015,05,02,07,59,7.20
2015,05,02,08,00,7.30
2015,05,02,08,01,7.30
2015,05,02,08,02,7.30
2015,05,02,08,03,7.30
2015,05,02,08,04,7.40
2015,05,02,08,05,7.40
2015,05,02,08,06,7.40
2015,05,02,08,07,7.50
2015,05,02,08,08,7.50
2015,05,02,08,09,7.60
2015,05,02,08,10,7.60
2015,05,02,08,11,7.60
2015,05,02,08,12,7.70
2015,05,02,08,13,7.70
2015,05,02,08,14,7.70
2015,05,02,08,15,7.80
2015,05,02,08,16,7.80
2015,05,02,08,17,7.90
2015,05,02,08,18,7.90
2015,05,02,08,19,8.00
2015,05,02,08,20,8.10
2015,05,02,08,21,8.10
2015,05,02,08,22,8.20
2015,05,02,08,23,8.20
2015,05,02,08,24,8.20
2015,05,02,08,25,8.30
2015,05,02,08,26,8.30
2015,05,02,08,27,8.30
2015,05,02,08,28,8.40
2015,05,02,08,29,8.40
2015,05,02,08,30,8.40
2015,05,02,08,31,8.40
2015,05,02,08,32,8.50
2015,05,02,08,33,8.50
2015,05,02,08,34,8.60
2015,05,02,08,35,8.60
2015,05,02,08,36,8.60
2015,05,02,08,37,8.60
2015,05,02,08,38,8.70
2015,05,02,08,39,8.70
2015,05,02,08,40,8.70
2015,05,02,08,41,8.70
2015,05,02,08,42,8.70
2015,05,02,08,43,8.70
2015,05,02,08,44,8.80
2015,05,02,08,45,8.80
2015,05,02,08,46,8.80
2015,05,02,08,47,8.80
2015,05,02,08,48,8.80
2015,05,02,08,49,8.90
2015,05,02,08,50,8.90
2015,05,02,08,51,9.00
2015,05,02,08,52,9.10
2015,05,02,08,53,9.10
2015,05,02,08,54,9.20
2015,05,02,08,55,9.20
2015,05,02,08,56,9.20
2015,05,02,08,57,9.30
2015,05,02,08,58,9.30
2015,05,02,08,59,9.40
2015,05,02,09,00,9.40
2015,05,02,09,01,9.50
2015,05,02,09,02,9.60
2015,05,02,09,03,9.60
2015,05,02,09,04,9.70
2015,05,02,09,05,9.70
2015,05,02,09,06,9.80
2015,05,02,09,07,9.90
2015,05,02,09,08,10.00
2015,05,02,09,09,10.10
2015,05,02,09,10,10.10
2015,05,02,09,11,10.20
2015,05,02,09,12,10.20
2015,05,02,09,13,10.20
2015,05,02,09,14,10.20
2015,05,02,09,15,10.30
2015,05,02,09,16,10.20
2015,05,02,09,17,10.20
2015,05,02,09,18,10.20
2015,05,02,09,19,10.30
2015,05,02,09,20,10.30
2015,05,02,09,21,10.30
2015,05,02,09,22,10.40
2015,05,02,09,23,10.50
2015,05,02,09,24,10.60
2015,05,02,09,25,10.60
2015,05,02,09,26,10.70
2015,05,02,09,27,10.70
2015,05,02,09,28,10.80
2015,05,02,09,29,10.80
2015,05,02,09,30,10.90
2015,05,02,09,31,10.90
2015,05,02,09,32,11.00
2015,05,02,09,33,11.10
2015,05,02,09,34,11.10
2015,05,02,09,35,11.10
2015,05,02,09,36,11.20
2015,05,02,09,37,11.20
2015,05,02,09,38,11.20
2015,05,02,09,39,11.30
2015,05,02,09,40,11.30
2015,05,02,09,41,11.30
2015,05,02,09,42,11.40
2015,05,02,09,43,11.40
2015,05,02,09,44,11.40
2015,05,02,09,45,11.50
2015,05,02,09,46,11.50
2015,05,02,09,47,11.50
2015,05,02,09,48,11.50
2015,05,02,09,49,11.60
2015,05,02,09,50,11.60
2015,05,02,09,51,11.60
2015,05,02,09,52,11.60
2015,05,02,09,53,11.70
2015,05,02,09,54,11.70
2015,05,02,09,55,11.70
2015,05,02,09,56,11.70
2015,05,02,09,57,11.70
2015,05,02,09,58,11.80
2015,05,02,09,59,11.80
2015,05,02,10,00,11.90
2015,05,02,10,01,12.10
2015,05,02,10,02,12.10
2015,05,02,10,03,12.20
2015,05,02,10,04,12.20
2015,05,02,10,05,12.30
2015,05,02,10,06,12.30
2015,05,02,10,07,12.30
2015,05,02,10,08,12.30
2015,05,02,10,09,12.30
2015,05,02,10,10,12.30
2015,05,02,10,11,12.30
2015,05,02,10,12,12.30
2015,05,02,10,13,12.30
2015,05,02,10,14,12.30
2015,05,02,10,15,12.30
2015,05,02,10,16,12.30
2015,05,02,10,17,12.30
2015,05,02,10,18,12.40
2015,05,02,10,19,12.40
2015,05,02,10,20,12.40
2015,05,02,10,21,12.50
2015,05,02,10,22,12.60
2015,05,02,10,23,12.60
2015,05,02,10,24,12.70
2015,05,02,10,25,12.70
2015,05,02,10,26,12.70
2015,05,02,10,27,12.70
2015,05,02,10,28,12.70
2015,05,02,10,29,12.80
2015,05,02,10,30,12.80
2015,05,02,10,31,12.90
2015,05,02,10,32,13.00
2015,05,02,10,33,13.10
2015,05,02,10,34,13.10
2015,05,02,10,35,13.10
2015,05,02,10,36,13.20
2015,05,02,10,37,13.20
2015,05,02,10,38,13.30
2015,05,02,10,39,13.30
2015,05,02,10,40,13.40
2015,05,02,10,41,13.40
2015,05,02,10,42,13.60
2015,05,02,10,43,13.60
2015,05,02,10,44,13.60
2015,05,02,10,45,13.60
2015,05,02,10,46,13.70
2015,05,02,10,47,13.70
2015,05,02,10,48,13.80
2015,05,02,10,49,13.80
2015,05,02,10,50,13.90
2015,05,02,10,51,14.10
2015,05,02,10,52,14.10
2015,05,02,10,53,14.20
2015,05,02,10,54,14.20
2015,05,02,10,55,14.20
2015,05,02,10,56,14.20
2015,05,02,10,57,14.20
2015,05,02,10,58,14.30
2015,05,02,10,59,14.30
2015,05,02,11,00,14.20
2015,05,02,11,01,14.20
2015,05,02,11,02,14.20
2015,05,02,11,03,14.20
2015,05,02,11,04,14.30
2015,05,02,11,05,14.30
2015,05,02,11,06,14.30
2015,05,02,11,07,14.30
2015,05,02,11,08,14.30
2015,05,02,11,09,14.30
2015,05,02,11,10,14.40
2015,05,02,11,11,14.40
2015,05,02,11,12,14.40
2015,05,02,11,13,14.40
2015,05,02,11,14,14.50
2015,05,02,11,15,14.60
2015,05,02,11,16,14.60
2015,05,02,11,17,14.60
2015,05,02,11,18,14.60
2015,05,02,11,19,14.60
2015,05,02,11,20,14.60
2015,05,02,11,21,14.70
2015,05,02,11,22,14.70
2015,05,02,11,23,14.80
2015,05,02,11,24,14.80
2015,05,02,11,25,14.80
2015,05,02,11,26,14.80
2015,05,02,11,27,14.70
2015,05,02,11,28,14.70
2015,05,02,11,29,14.70
2015,05,02,11,30,14.70
2015,05,02,11,31,14.80
2015,05,02,11,32,14.80
2015,05,02,11,33,14.80
2015,05,02,11,34,14.90
2015,05,02,11,35,14.90
2015,05,02,11,36,15.10
2015,05,02,11,37,15.10
2015,05,02,11,38,15.20
2015,05,02,11,39,15.30
2015,05,02,11,40,15.30
2015,05,02,11,41,15.40
2015,05,02,11,42,15.50
2015,05,02,11,43,15.60
2015,05,02,11,44,15.60
2015,05,02,11,45,15.60
2015,05,02,11,46,15.60
2015,05,02,11,47,15.50
2015,05,02,11,48,15.60
2015,05,02,11,49,15.60
2015,05,02,11,50,15.60
2015,05,02,11,51,15.60
2015,05,02,11,52,15.60
2015,05,02,11,53,15.60
2015,05,02,11,54,15.60
2015,05,02,11,55,15.70
2015,05,02,11,56,15.70
2015,05,02,11,57,15.70
2015,05,02,11,58,15.60
2015,05,02,11,59,15.60
2015,05,02,12,00,15.60
2015,05,02,12,01,15.60
2015,05,02,12,02,15.70
2015,05,02,12,03,15.70
2015,05,02,12,04,15.70
2015,05,02,12,05,15.70
2015,05,02,12,06,15.80
2015,05,02,12,07,15.90
2015,05,02,12,08,16.10
2015,05,02,12,09,16.20
2015,05,02,12,10,16.30
2015,05,02,12,11,16.30
2015,05,02,12,12,16.40
2015,05,02,12,13,16.40
2015,05,02,12,14,16.30
2015,05,02,12,15,16.30
2015,05,02,12,16,16.30
2015,05,02,12,17,16.20
2015,05,02,12,18,16.20
2015,05,02,12,19,16.10
2015,05,02,12,20,16.20
2015,05,02,12,21,16.20
2015,05,02,12,22,16.30
2015,05,02,12,23,16.30
2015,05,02,12,24,16.40
2015,05,02,12,25,16.40
2015,05,02,12,26,16.50
2015,05,02,12,27,16.50
2015,05,02,12,28,16.60
2015,05,02,12,29,16.60
2015,05,02,12,30,16.60
2015,05,02,12,31,16.50
2015,05,02,12,32,16.50
2015,05,02,12,33,16.50
2015,05,02,12,34,16.60
2015,05,02,12,35,16.60
2015,05,02,12,36,16.60
2015,05,02,12,37,16.60
2015,05,02,12,38,16.60
2015,05,02,12,39,16.50
2015,05,02,12,40,16.30
2015,05,02,12,41,16.30
2015,05,02,12,42,16.30
2015,05,02,12,43,16.40
2015,05,02,12,44,16.60
2015,05,02,12,45,16.60
2015,05,02,12,46,16.80
2015,05,02,12,47,16.80
2015,05,02,12,48,16.90
2015,05,02,12,49,16.80
2015,05,02,12,50,16.80
2015,05,02,12,51,16.70
2015,05,02,12,52,16.70
2015,05,02,12,53,16.60
2015,05,02,12,54,16.40
2015,05,02,12,55,16.40
2015,05,02,12,56,16.30
2015,05,02,12,57,16.40
2015,05,02,12,58,16.40
2015,05,02,12,59,16.40
2015,05,02,13,00,16.40
2015,05,02,13,01,16.40
2015,05,02,13,02,16.50
2015,05,02,13,03,16.60
2015,05,02,13,04,16.70
2015,05,02,13,05,16.80
2015,05,02,13,06,16.90
2015,05,02,13,07,17.00
2015,05,02,13,08,17.10
2015,05,02,13,09,17.10
2015,05,02,13,10,17.10
2015,05,02,13,11,17.10
2015,05,02,13,12,17.10
2015,05,02,13,13,17.10
2015,05,02,13,14,17.20
2015,05,02,13,15,17.20
2015,05,02,13,16,17.20
2015,05,02,13,17,17.20
2015,05,02,13,18,17.20
2015,05,02,13,19,17.20
2015,05,02,13,20,17.30
2015,05,02,13,21,17.40
2015,05,02,13,22,17.30
2015,05,02,13,23,17.30
2015,05,02,13,24,17.20
2015,05,02,13,25,17.20
2015,05,02,13,26,17.20
2015,05,02,13,27,17.20
2015,05,02,13,28,17.20
2015,05,02,13,29,17.20
2015,05,02,13,30,17.20
2015,05,02,13,31,17.20
2015,05,02,13,32,17.20
2015,05,02,13,33,17.20
2015,05,02,13,34,17.20
2015,05,02,13,35,17.20
2015,05,02,13,36,17.30
2015,05,02,13,37,17.40
2015,05,02,13,38,17.40
2015,05,02,13,39,17.50
2015,05,02,13,40,17.60
2015,05,02,13,41,17.60
2015,05,02,13,42,17.60
2015,05,02,13,43,17.60
2015,05,02,13,44,17.70
2015,05,02,13,45,17.80
2015,05,02,13,46,17.90
2015,05,02,13,47,17.90
2015,05,02,13,48,17.90
2015,05,02,13,49,17.80
2015,05,02,13,50,17.80
2015,05,02,13,51,17.80
2015,05,02,13,52,17.80
2015,05,02,13,53,17.70
2015,05,02,13,54,17.70
2015,05,02,13,55,17.70
2015,05,02,13,56,17.70
2015,05,02,13,57,17.70
2015,05,02,13,58,17.80
2015,05,02,13,59,17.80
2015,05,02,14,00,17.90
2015,05,02,14,01,18.00
2015,05,02,14,02,18.10
2015,05,02,14,03,18.20
2015,05,02,14,04,18.40
2015,05,02,14,05,18.50
2015,05,02,14,06,18.60
2015,05,02,14,07,18.70
2015,05,02,14,08,18.70
2015,05,02,14,09,18.80
2015,05,02,14,10,18.70
2015,05,02,14,11,18.60
2015,05,02,14,12,18.60
2015,05,02,14,13,18.50
2015,05,02,14,14,18.40
2015,05,02,14,15,18.40
2015,05,02,14,16,18.40
2015,05,02,14,17,18.50
2015,05,02,14,18,18.40
2015,05,02,14,19,18.30
2015,05,02,14,20,18.30
2015,05,02,14,21,18.20
2015,05,02,14,22,18.30
2015,05,02,14,23,18.40
2015,05,02,14,24,18.40
2015,05,02,14,25,18.40
2015,05,02,14,26,18.50
2015,05,02,14,27,18.60
2015,05,02,14,28,18.60
2015,05,02,14,29,18.70
2015,05,02,14,30,18.80
2015,05,02,14,31,18.90
2015,05,02,14,32,18.80
2015,05,02,14,33,18.80
2015,05,02,14,34,18.70
2015,05,02,14,35,18.80
2015,05,02,14,36,18.70
2015,05,02,14,37,18.70
2015,05,02,14,38,18.60
2015,05,02,14,39,18.60
2015,05,02,14,40,18.40
2015,05,02,14,41,18.40
2015,05,02,14,42,18.40
2015,05,02,14,43,18.40
2015,05,02,14,44,18.40
2015,05,02,14,45,18.50
2015,05,02,14,46,18.50
2015,05,02,14,47,18.50
2015,05,02,14,48,18.60
2015,05,02,14,49,18.60
2015,05,02,14,50,18.60
2015,05,02,14,51,18.60
2015,05,02,14,52,18.60
2015,05,02,14,53,18.60
2015,05,02,14,54,18.50
2015,05,02,14,55,18.60
2015,05,02,14,56,18.60
2015,05,02,14,57,18.70
2015,05,02,14,58,18.80
2015,05,02,14,59,18.90
2015,05,02,15,00,18.90
2015,05,02,15,01,18.90
2015,05,02,15,02,18.90
2015,05,02,15,03,19.00
2015,05,02,15,04,18.90
2015,05,02,15,05,18.90
2015,05,02,15,06,18.80
2015,05,02,15,07,18.80
2015,05,02,15,08,18.80
2015,05,02,15,09,18.80
2015,05,02,15,10,19.00
2015,05,02,15,11,19.10
2015,05,02,15,12,19.20
2015,05,02,15,13,19.30
2015,05,02,15,14,19.30
2015,05,02,15,15,19.30
2015,05,02,15,16,19.30
2015,05,02,15,17,19.20
2015,05,02,15,18,19.20
2015,05,02,15,19,19.20
2015,05,02,15,20,19.30
2015,05,02,15,21,19.30
2015,05,02,15,22,19.20
2015,05,02,15,23,19.20
2015,05,02,15,24,19.30
2015,05,02,15,25,19.30
2015,05,02,15,26,19.30
2015,05,02,15,27,19.40
2015,05,02,15,28,19.40
2015,05,02,15,29,19.40
2015,05,02,15,30,19.30
2015,05,02,15,31,19.30
2015,05,02,15,32,19.30
2015,05,02,15,33,19.40
2015,05,02,15,34,19.40
2015,05,02,15,35,19.40
2015,05,02,15,36,19.50
2015,05,02,15,37,19.50
2015,05,02,15,38,19.40
2015,05,02,15,39,19.30
2015,05,02,15,40,19.20
2015,05,02,15,41,19.10
2015,05,02,15,42,19.10
2015,05,02,15,43,19.10
2015,05,02,15,44,19.10
2015,05,02,15,45,19.10
2015,05,02,15,46,19.10
2015,05,02,15,47,19.10
2015,05,02,15,48,19.10
2015,05,02,15,49,19.20
2015,05,02,15,50,19.30
2015,05,02,15,51,19.40
2015,05,02,15,52,19.40
2015,05,02,15,53,19.40
2015,05,02,15,54,19.50
2015,05,02,15,55,19.60
2015,05,02,15,56,19.60
2015,05,02,15,57,19.60
2015,05,02,15,58,19.60
2015,05,02,15,59,19.60
2015,05,02,16,00,19.60
2015,05,02,16,01,19.60
2015,05,02,16,02,19.60
2015,05,02,16,03,19.60
2015,05,02,16,04,19.60
2015,05,02,16,05,19.50
2015,05,02,16,06,19.50
2015,05,02,16,07,19.50
2015,05,02,16,08,19.60
2015,05,02,16,09,19.60
2015,05,02,16,10,19.60
2015,05,02,16,11,19.50
2015,05,02,16,12,19.40
2015,05,02,16,13,19.40
2015,05,02,16,14,19.50
2015,05,02,16,15,19.50
2015,05,02,16,16,19.60
2015,05,02,16,17,19.60
2015,05,02,16,18,19.60
2015,05,02,16,19,19.60
2015,05,02,16,20,19.60
2015,05,02,16,21,19.60
2015,05,02,16,22,19.60
2015,05,02,16,23,19.60
2015,05,02,16,24,19.60
2015,05,02,16,25,19.60
2015,05,02,16,26,19.60
2015,05,02,16,27,19.50
2015,05,02,16,28,19.40
2015,05,02,16,29,19.40
2015,05,02,16,30,19.40
2015,05,02,16,31,19.50
2015,05,02,16,32,19.60
2015,05,02,16,33,19.60
2015,05,02,16,34,19.60
2015,05,02,16,35,19.60
2015,05,02,16,36,19.60
2015,05,02,16,37,19.70
2015,05,02,16,38,19.60
2015,05,02,16,39,19.60
2015,05,02,16,40,19.60
2015,05,02,16,41,19.60
2015,05,02,16,42,19.70
2015,05,02,16,43,19.60
2015,05,02,16,44,19.60
2015,05,02,16,45,19.60
2015,05,02,16,46,19.60
2015,05,02,16,47,19.60
2015,05,02,16,48,19.60
2015,05,02,16,49,19.60
2015,05,02,16,50,19.70
2015,05,02,16,51,19.70
2015,05,02,16,52,19.80
2015,05,02,16,53,19.80
2015,05,02,16,54,19.80
2015,05,02,16,55,19.90
2015,05,02,16,56,20.00
2015,05,02,16,57,20.10
2015,05,02,16,58,20.10
2015,05,02,16,59,20.20
2015,05,02,17,00,20.30
2015,05,02,17,01,20.30
2015,05,02,17,02,20.30
2015,05,02,17,03,20.20
2015,05,02,17,04,20.10
2015,05,02,17,05,20.00
2015,05,02,17,06,19.90
2015,05,02,17,07,19.80
2015,05,02,17,08,19.70
2015,05,02,17,09,19.70
2015,05,02,17,10,19.70
2015,05,02,17,11,19.80
2015,05,02,17,12,19.80
2015,05,02,17,13,19.80
2015,05,02,17,14,19.80
2015,05,02,17,15,19.80
2015,05,02,17,16,19.80
2015,05,02,17,17,19.80
2015,05,02,17,18,19.80
2015,05,02,17,19,19.90
2015,05,02,17,20,20.00
2015,05,02,17,21,20.10
2015,05,02,17,22,20.10
2015,05,02,17,23,20.20
2015,05,02,17,24,20.20
2015,05,02,17,25,20.10
2015,05,02,17,26,20.10
2015,05,02,17,27,20.20
2015,05,02,17,28,20.20
2015,05,02,17,29,20.20
2015,05,02,17,30,20.20
2015,05,02,17,31,20.10
2015,05,02,17,32,20.10
2015,05,02,17,33,20.10
2015,05,02,17,34,20.10
2015,05,02,17,35,20.00
2015,05,02,17,36,20.00
2015,05,02,17,37,20.10
2015,05,02,17,38,20.10
2015,05,02,17,39,20.10
2015,05,02,17,40,19.90
2015,05,02,17,41,19.80
2015,05,02,17,42,19.60
2015,05,02,17,43,19.50